Location: Baller�as
(41.9020°N, 0.1554°W)
Time: 10:43:24
(UTC+00:00)

Intercosmos 25 - Pass Details

Date: 10 August 2020
Orbit: 439 x 2877 km, 82.6° (Epoch: 22 September)

Event Time Altitude Azimuth Distance (km) Brightness Sun altitude
Rises 19:41:07 0° 0° (N) 3,136 7.6 -6.6°
Reaches altitude 10° 19:44:02 10° 13° (NNE) 1,943 6.3 -7.0°
Maximum altitude 19:47:25 25° 71° (ENE) 1,025 4.3 -7.6°
Enters shadow 19:50:09 10° 130° (SE) 1,562 5.0 -8.0°
